Location: *
(33.8649°S, 62.1526°E)
Time: 04:46:14
(UTC+00:00)

SL-8 R/B - Pass Details

Date: 17 January 2021
Orbit: 657 x 667 km, 48.4° (Epoch: 27 February)

Event Time Altitude Azimuth Distance (km) Brightness Sun altitude
Rises 16:33:44 0° 235° (SW) 3,005 8.9 -16.4°
Reaches altitude 10° 16:36:08 10° 239° (WSW) 2,089 7.6 -16.8°
Maximum altitude 16:40:52 58° 317° (NW) 773 4.0 -17.5°
Enters shadow 16:42:55 32° 22° (NNE) 1,143 4.4 -17.9°
